Weather History for KROA - January, 2013

Change the Weather History Date:

Tuesday, January 1, 2013

  Actual Average Record
Temperature  
Mean Temperature 47 °F 37 °F  
Max Temperature 52 °F 46 °F 78 °F (1952)
Min Temperature 41 °F 28 °F 8 °F (1918)
Degree Days  
Heating Degree Days 18 28  
Month to date heating degree days 18 28  
Since 1 July heating degree days 1530 1638  
Cooling Degree Days 0 0  
Month to date cooling degree days 0 0  
Year to date cooling degree days 0 0  
Moisture  
Dew Point 32 °F    
Average Humidity 52    
Maximum Humidity 76    
Minimum Humidity 28    
Precipitation  
Precipitation 0.02 in 0.09 in 1.56 in (1964)
Month to date precipitation 0.02 0.09  
Year to date precipitation 0.02 0.09  
Snow  
Snow 0.00 in - - ()
Month to date snowfall 0.0  
Since 1 July snowfall 0.3  
Snow Depth 0.00 in    
Sea Level Pressure  
Sea Level Pressure 30.00 in    
Wind  
Wind Speed 6 mph (West)    
Max Wind Speed 16 mph    
Max Gust Speed 22 mph    
Visibility 10 miles    
Events Rain    
T = Trace of Precipitation, MM = Missing Value Source: NWS Daily Summary

Daily Weather History Graph

Daily Weather History Graph

Search for Another Location

Airport or City:

Trip Planner

Search our weather history database for the weather conditions in past years. The results will help you decide how hot, cold, wet, or windy it might be!

Date:

Astronomy

Jan. 01, 2013 Rise Set
Actual Time 7:34 AM EST 5:13 PM EST
Civil Twilight 7:05 AM EST 5:42 PM EST
Nautical Twilight 6:32 AM EST 6:14 PM EST
Astronomical Twilight 6:00 AM EST 6:46 PM EST
Moon 9:36 PM EST (1/1) 9:51 AM EST (1/1)
Length of Visible Light 10h 37m
Length of Day
9h 39m
Waning Gibbous, 83% of the Moon is Illuminated
Jan 1
Waning Gibbous
Jan 4
Last Quarter
Jan 11
New
Jan 18
First Quarter
Jan 26
Full

Hourly Weather History & Observations

Time (EST) Temp. Windchill Dew Point Humidity Pressure Visibility Wind Dir Wind Speed Gust Speed Precip Events Conditions
12:54 AM 44.1 °F 42.5 °F 14.0 °F 30% 30.09 in 10.0 mi WSW 3.5 mph - N/A   Clear
1:54 AM 44.1 °F 40.1 °F 14.0 °F 30% 30.05 in 10.0 mi WSW 6.9 mph - N/A   Clear
2:54 AM 44.1 °F 40.1 °F 15.1 °F 31% 30.07 in 10.0 mi West 6.9 mph - N/A   Mostly Cloudy
3:54 AM 45.0 °F - 16.0 °F 31% 30.06 in 10.0 mi Calm Calm - N/A   Overcast
4:54 AM 44.1 °F 42.5 °F 25.0 °F 47% 30.02 in 10.0 mi West 3.5 mph - 0.00 in Rain Light Rain
5:54 AM 43.0 °F 41.3 °F 25.0 °F 49% 30.03 in 10.0 mi West 3.5 mph - 0.00 in   Overcast
6:54 AM 42.1 °F 40.2 °F 27.0 °F 55% 30.02 in 10.0 mi Variable 3.5 mph - N/A   Partly Cloudy
7:54 AM 43.0 °F 36.4 °F 26.1 °F 51% 30.02 in 10.0 mi West 12.7 mph 18.4 mph 0.00 in   Mostly Cloudy
8:54 AM 44.1 °F 37.4 °F 28.9 °F 55% 30.03 in 10.0 mi West 13.8 mph 19.6 mph N/A   Scattered Clouds
9:54 AM 46.0 °F 40.2 °F 35.1 °F 66% 30.00 in 10.0 mi SW 12.7 mph 21.9 mph N/A   Overcast
10:15 AM 46.4 °F 41.1 °F 35.6 °F 66% 30.02 in 10.0 mi WSW 11.5 mph - N/A   Overcast
10:54 AM 48.0 °F - 36.0 °F 63% 30.01 in 10.0 mi WSW 8.1 mph - N/A   Overcast
11:54 AM 50.0 °F - 37.9 °F 63% 29.97 in 10.0 mi West 4.6 mph - N/A   Overcast
12:16 PM 50.0 °F - 37.4 °F 62% 29.95 in 10.0 mi Calm Calm - N/A   Overcast
12:38 PM 50.0 °F - 39.2 °F 66% 29.95 in 10.0 mi West 6.9 mph - N/A   Overcast
12:54 PM 51.1 °F - 39.0 °F 63% 29.94 in 10.0 mi West 8.1 mph - N/A   Overcast
1:54 PM 51.1 °F - 39.0 °F 63% 29.92 in 10.0 mi WNW 5.8 mph - N/A   Overcast
2:35 PM 51.8 °F - 39.2 °F 62% 29.91 in 10.0 mi Calm Calm - N/A   Overcast
2:54 PM 50.0 °F - 39.0 °F 66% 29.93 in 10.0 mi Calm Calm - N/A   Overcast
3:54 PM 50.0 °F - 37.9 °F 63% 29.94 in 10.0 mi North 4.6 mph - N/A   Overcast
4:54 PM 48.0 °F - 37.9 °F 68% 29.96 in 10.0 mi NNW 8.1 mph - N/A   Overcast
5:54 PM 46.9 °F - 37.0 °F 68% 29.97 in 10.0 mi NNW 15.0 mph - N/A   Overcast
6:54 PM 46.0 °F 43.9 °F 35.1 °F 66% 29.99 in 10.0 mi SW 4.6 mph - N/A   Overcast
7:54 PM 46.0 °F 43.9 °F 36.0 °F 68% 29.98 in 10.0 mi SW 4.6 mph - N/A   Overcast
8:54 PM 45.0 °F - 36.0 °F 71% 29.98 in 10.0 mi Calm Calm - 0.00 in Rain Light Rain
9:01 PM 46.4 °F - 35.6 °F 66% 29.98 in 10.0 mi Calm Calm - 0.00 in Rain Light Rain
9:54 PM 43.0 °F 38.8 °F 37.0 °F 80% 30.01 in 10.0 mi North 6.9 mph - 0.01 in Rain Light Rain
10:54 PM 42.1 °F 40.2 °F 36.0 °F 79% 30.01 in 10.0 mi NNE 3.5 mph - 0.01 in Rain Light Rain
11:54 PM 42.1 °F - 36.0 °F 79% 30.00 in 10.0 mi Calm Calm - 0.00 in Rain Light Rain